T Tauri star MR81
(Preview)
Stars/galaxy News
0
546
Title: Edge-on disk around the T Tauri star [MR81] Halpha 17 NE in CrA Authors: R. Neuhaeuser, S. Kraemer, M. Mugrauer (AIU Jena), R. Koehler (MPIA Heidelberg), T.O.B. Schmidt (AIU Jena), M. Ammler-von Eiff (U Lissboa), J. Alves (Calar Alto Obs.), S. Fiedler (AIU Jena), N. Vogt (U Valparaiso) Using...
VideoCorner WebTV
(Preview)
Audio Visual
0
1154
Arianespace launches new "VideoCorner" WebTV Seven years after rolling out its VideoCorner website, Arianespace today announced the launch of its brand-new WebTV, which officially went online on February 8, 2009. The site's graphic standards were adapted to meet the new specific r...
Plasma Jets
(Preview)
Astronomy News
1
597
Jets of charged particles have been caught in the act of forming for the first time in a new laboratory experiment.
The research may help astrophysicists understand how magnetic fields confine jets over hundreds or thousands of light years in length - similar to those that spew from stars and gala...
Asteroid 2009 CD2
(Preview)
Solar System
2
568
Asteroid 2009 CD2 = 9C975EA (NEOCPO) Orbital elements: 2009 CD2 Earth MOID = 0.0143 AU Epoch 2008 Nov. 30.0 TT = JDT 2454800.5 MPC M 321.03814 (2000.0) P Q n 0.39972482 Peri. 218.82249 -0.99420968 -0.09984575 a 1.8251363 Node 315.39677 +0.10717322 -0.89446991 e 0.4717774 Incl. 3.24297 +0.007811...
Royal Masonic School Observatory
(Preview)
General news
0
533
Pupils at the Royal Masonic School are looking to the stars with renewed confidence after the completion of a new observatory. The girls'school, in Chorleywood Road, has spent around £5,000 refurbishing its historic observatory and purchasing a new super powered telescope. [url=http://www.w...
Axel Rover System
(Preview)
Mission News
2
545
Engineers from NASA's Jet Propulsion Laboratory and students at the California Institute of Technology have designed and tested a versatile, low-mass robot that can rappel off cliffs, travel nimbly over steep and rocky terrain, and explore deep craters. This prototype rover, called Axel, migh...
Vista Tweaks
(Preview)
Computers
7
1269
TotalIdeas TweakVI (free basic edition) makes up for the lack of a TweakUI for Vista. TweakUI is a Microsoft PowerToy for Windows XP (not Vista). It allows you to change all kinds of settings for how the operating system works. See the Hit Parade below, to get an idea of the kinds of settings Im talking a...
Nova in The LMC
(Preview)
Astronomy News
0
2856
A magnitude 10.6 nova was discovered by W. Liller (Chile) on the 5th February, 2009, in the Large Magellanic Cloud. Position(2000): RA = 05h 40m 44.20s, Dec = -66° 40' 11.6"
ChinaSat6B
(Preview)
Mission News
5
835
The China Great Wall Industry Corp . (CGWIC), a satellite launch service contractor, and China Satcom signed a deal on Friday to launch a French-made broadcast satellite.
According to the deal, CGWIC will provide the launch service for China Satcom, the owner of the satellite...
Asteroid 2007 LF
(Preview)
Solar System
0
465
Orbital elements: 2007 LF PHA, Earth MOID = 0.0042 AU Epoch 2008 Nov. 30.0 TT = JDT 2454800.5 MPC M 260.42062 (2000.0) P Q n 0.45152654 Peri. 333.61131 -0.83426407 +0.54131798 a 1.6827278 Node 239.55308 -0.48194664 -0.80824829 e 0.4197749 Incl. 6.98085 -0.26782624 -0.23175319 P 2.18 H 20.5 G 0.15...
NSV 4838
(Preview)
Stars/galaxy News
0
2587
Title: CCD Photometry of a Newly Confirmed SU UMa-Type Dwarf Nova, NSV 4838 Authors: Akira Imada, Tatsuki Yasuda, Toshihiro Omodaka, Shota Oizumi, Hiroyuki Yamamoto, Shunsuke Tanada, Yoshihiro Arao, Kie Kodama, Miho Suzuki, Takeshi Matsuo, Hiroyuki Maehara, Taichi Kato, Kei Sugiyasu, Yuuki...
2MASS J06164006-6407194
(Preview)
Stars/galaxy News
0
538
Title: 2MASS J06164006-6407194: The First Outer Halo L Subdwarf Authors: M.C. Cushing, D. Looper, A.J. Burgasser, J.D. Kirkpatrick, J. Faherty, K. Cruz, A. Sweet, R.E. Sanderson We present the serendipitous discovery of an L subdwarf, 2MASS J06164006-6407194, in a search of the Two Micron All S...
Lunar Eclipse, February 9, 2009
(Preview)
Events
4
601
A penumbral lunar eclipse will take place on February 9, 2009, the first of four penumbral lunar eclipses in 2009. It will also be the deepest of the four. The eclipse will not be visible in the East coast of the United States, South America and southernmost Mexico, Western Africa and western Europe. B...
Asteroid 2009 CU
(Preview)
Solar System
1
441
2009 CU = 9C08A7B (NEOCPO) Orbital elements: 2009 CU Earth MOID = 0.0372 AU Epoch 2009 Jan. 29.0 TT = JDT 2454860.5 MPC M 5.71846 (2000.0) P Q n 0.58295978 Peri. 341.87810 -0.51704795 -0.85354710 a 1.4192002 Node 139.19060 +0.79697418 -0.50741480 e 0.2838629 Incl. 5.63548 +0.31223962 -0.1182690...
Super-pressure balloon
(Preview)
Mission News
0
2778
[url=http://www.nature.com/news/2009/090208/full/news.200...
«First < 1
2158 2159 2160 2161 2162
2461 > Last» | Page
